User: anonymous   Login
Location: Melbourne
(37.8170°S, 144.9670°E)
Time: 18:30:42
(UTC+11:00)
Language:

Cosmos 1656 Rocket - Orbit

View from above orbital plane
View from above orbital plane
View from above satellite
View from above satellite

Ground track
Ground track

The orbit data is extracted from the following two-line orbital elements,

1 15772U 85042D   14304.13088155 -.00000087  00000-0 -18058-4 0  5139
2 15772 071.1090 201.2455 0033280 095.3912 007.1107 14.21049124525057
Epoch (UTC): 31 October 2014 03:08:28
Eccentricity: 0.0033280
inclination: 71.1090°
perigee height: 798 km
apogee height: 846 km
right ascension of ascending node: 201.2455°
argument of perigee: 95.3912°
revolutions per day: 14.21049124
mean anomaly at epoch: 7.1107°
orbit number at epoch: 52505

The dashed part of the orbit path shows where the satellite is in the earth's shadow,  

DLR